DW5049 Jena DE current weather conditions

sailwx.info

Wind from 198 at 4 knots gusting 11

Air temperature 28.3° C
Dewpoint 14.2° C

Last reported at 2018-Sep-19 11:04 UTC.
Time now 2018-Sep-19 11:44 UTC

Location: N 50°54' E 011°33'.
View on Google Maps.

See reports from other nearby stations

  
Tides and Currents Weather Stations Pressure Air Temp Water Temp Dewpoint Dewpoint Depression Visibility Wind Speed Wind Dir Waves Ship Positions
date/time (UTC)wind fromknots sea level pressurealtimeterstation pressurevisibilityair tempwater tempwave heightnotes
2018-Sep-19 11:04 198 4 gusting 11 28.3
2018-Sep-19 10:48 187 5 gusting 13 27.8
2018-Sep-19 10:33 138 6 gusting 11 27.2
2018-Sep-19 10:18 148 6 gusting 13 26.7
2018-Sep-19 10:03 182 5 gusting 12 26.1
2018-Sep-19 09:48 196 2 gusting 7 24.4
2018-Sep-19 09:33 154 1 gusting 6 23.3
2018-Sep-19 09:18 051 1 gusting 5 22.2
2018-Sep-19 09:03 097 2 gusting 4 20.6
2018-Sep-19 08:48 053 0 gusting 3 19.4
2018-Sep-19 08:33 065 1 gusting 3 18.3
2018-Sep-19 08:18 067 17.2
2018-Sep-19 08:03 062 16.1
2018-Sep-19 07:48 062 1 gusting 4 15.6
2018-Sep-19 07:33 044 0 gusting 3 15.0
2018-Sep-19 07:18 342 13.9
2018-Sep-19 07:03 342 13.3
2018-Sep-19 06:47 323 13.3
2018-Sep-19 06:32 284 13.3
2018-Sep-19 06:17 195 13.3
2018-Sep-19 06:03 355 13.3
2018-Sep-19 05:47 065 12.8
2018-Sep-19 05:32 311 12.8
2018-Sep-19 05:17 311 12.8
2018-Sep-19 05:03 311 12.2
2018-Sep-19 04:47 225 0 gusting 2 12.2
2018-Sep-19 04:32 225 0 gusting 3 12.2
2018-Sep-19 04:17 313 12.2
2018-Sep-19 04:03 313 12.2
2018-Sep-19 03:47 313 12.8
2018-Sep-19 03:32 312 12.8
2018-Sep-19 03:17 312 12.8
2018-Sep-19 03:03 312 12.8
2018-Sep-19 02:47 313 12.8
2018-Sep-19 02:32 313 0 gusting 1 12.8
2018-Sep-19 02:17 313 12.2
2018-Sep-19 02:03 312 12.2
2018-Sep-19 01:47 313 12.8
2018-Sep-19 01:32 313 0 gusting 2 12.8
2018-Sep-19 01:17 313 0 gusting 1 12.8
2018-Sep-19 01:03 313 12.8
2018-Sep-19 00:47 312 13.3
2018-Sep-19 00:32 312 0 gusting 2 13.3
2018-Sep-19 00:17 312 13.3
2018-Sep-19 00:03 312 13.9
2018-Sep-18 23:47 312 13.9
2018-Sep-18 23:32 237 13.9
2018-Sep-18 23:17 320 1 gusting 3 13.9
2018-Sep-18 23:03 320 0 gusting 2 13.9
2018-Sep-18 22:47 320 0 gusting 2 13.9
2018-Sep-18 22:32 320 0 gusting 3 14.4
2018-Sep-18 22:17 320 1 gusting 2 14.4
2018-Sep-18 22:03 320 0 gusting 3 14.4
2018-Sep-18 21:47 320 1 gusting 2 15.0
2018-Sep-18 21:32 320 0 gusting 2 15.0
2018-Sep-18 21:17 320 1 gusting 2 15.0
2018-Sep-18 21:01 320 0 gusting 2 15.6
2018-Sep-18 20:46 320 0 gusting 2 15.6
2018-Sep-18 20:32 320 1 gusting 3 16.1
2018-Sep-18 20:16 300 0 gusting 3 16.7
2018-Sep-18 20:02 300 0 gusting 2 17.2
2018-Sep-18 19:46 308 0 gusting 2 17.8
2018-Sep-18 19:31 309 1 gusting 4 17.8
2018-Sep-18 19:16 295 0 gusting 5 17.8
2018-Sep-18 19:01 307 2 gusting 6 17.8
2018-Sep-18 18:46 290 1 gusting 5 18.3
2018-Sep-18 18:32 318 0 gusting 3 18.3
2018-Sep-18 18:16 312 0 gusting 3 18.9
2018-Sep-18 18:01 276 0 gusting 4 18.9
2018-Sep-18 17:46 321 2 gusting 4 20.0
2018-Sep-18 17:34 332 2 gusting 4 20.6
2018-Sep-18 17:16 316 1 gusting 3 21.1
2018-Sep-18 17:01 316 2 gusting 3 22.2
2018-Sep-18 16:46 315 0 gusting 3 22.8
2018-Sep-18 16:31 314 2 gusting 4 24.4
2018-Sep-18 16:16 307 1 gusting 4 25.6
2018-Sep-18 16:02 267 0 gusting 2 27.2
2018-Sep-18 15:46 313 1 gusting 4 28.3
2018-Sep-18 15:31 279 28.9
2018-Sep-18 15:16 211 2 gusting 8 29.4
2018-Sep-18 15:01 355 2 gusting 6 29.4
2018-Sep-18 14:46 254 3 gusting 6 30.0
2018-Sep-18 14:31 171 3 gusting 7 30.0
2018-Sep-18 14:16 172 4 gusting 6 30.0
2018-Sep-18 14:01 229 3 gusting 8 30.6
2018-Sep-18 13:46 223 4 gusting 9 30.6
2018-Sep-18 13:31 161 4 gusting 8 30.6
2018-Sep-18 13:16 169 5 gusting 10 30.6
2018-Sep-18 13:01 172 6 gusting 13 30.6
2018-Sep-18 12:47 308 1 gusting 9 30.6
2018-Sep-18 12:31 172 5 gusting 9 31.1
2018-Sep-18 12:16 177 4 gusting 9 31.1
2018-Sep-18 12:01 157 3 gusting 8 31.1
2018-Sep-18 11:46 221 4 gusting 7 30.6
2018-Sep-18 11:31 211 3 gusting 11 30.0
2018-Sep-18 11:16 162 6 gusting 11 30.0
2018-Sep-18 11:01 163 5 gusting 8 29.4
2018-Sep-18 10:48 128 2 gusting 9 28.9
2018-Sep-18 10:32 130 5 gusting 12 28.9
2018-Sep-18 10:16 157 4 gusting 8 28.3
2018-Sep-18 10:00 146 3 gusting 7 27.2
2018-Sep-18 09:45 063 1 gusting 6 25.6
2018-Sep-18 09:30 092 1 gusting 4 24.4
2018-Sep-18 09:15 088 0 gusting 3 22.8
2018-Sep-18 09:00 063 21.7
2018-Sep-18 08:45 068 0 gusting 2 20.6
2018-Sep-18 08:31 105 0 gusting 3 19.4
2018-Sep-18 08:16 088 0 gusting 4 18.3
2018-Sep-18 08:00 052 0 gusting 2 16.1
2018-Sep-18 07:45 097 13.9
2018-Sep-18 07:30 121 12.8
2018-Sep-18 07:15 315 11.7
2018-Sep-18 06:59 315 10.0
2018-Sep-18 06:44 315 9.4
2018-Sep-18 06:29 315 8.9
2018-Sep-18 06:14 315 8.3
2018-Sep-18 05:59 315 7.8
2018-Sep-18 05:44 315 7.8
2018-Sep-18 05:29 315 7.2
2018-Sep-18 05:14 315 7.2
2018-Sep-18 04:59 315 7.2
2018-Sep-18 04:44 315 7.8
2018-Sep-18 04:29 315 7.8
2018-Sep-18 04:14 315 7.8
2018-Sep-18 03:59 315 7.8
2018-Sep-18 03:44 315 7.8
2018-Sep-18 03:29 315 8.3
2018-Sep-18 03:14 315 8.3
2018-Sep-18 02:59 315 8.3
2018-Sep-18 02:44 315 8.9
2018-Sep-18 02:29 315 8.9
2018-Sep-18 01:59 315 9.4
2018-Sep-18 01:44 315 9.4
2018-Sep-18 01:29 315 9.4
2018-Sep-18 01:14 315 10.0
2018-Sep-18 00:59 315 10.0
2018-Sep-18 00:44 315 10.0
2018-Sep-18 00:29 315 1 gusting 2 10.6
2018-Sep-18 00:14 315 10.6
2018-Sep-17 23:59 315 0 gusting 1 10.6
2018-Sep-17 23:44 315 10.6
2018-Sep-17 23:29 315 0 gusting 1 10.6
2018-Sep-17 23:14 315 11.1
2018-Sep-17 22:59 315 0 gusting 2 11.1
2018-Sep-17 22:44 315 11.7
2018-Sep-17 22:29 315 0 gusting 2 11.7
2018-Sep-17 22:14 315 0 gusting 2 12.2
2018-Sep-17 21:59 315 12.2
2018-Sep-17 21:45 315 1 gusting 2 12.2
2018-Sep-17 21:29 315 12.8
2018-Sep-17 21:14 232 0 gusting 2 12.8
2018-Sep-17 20:58 325 0 gusting 2 13.3
2018-Sep-17 20:43 325 1 gusting 3 13.3
2018-Sep-17 20:28 325 1 gusting 3 13.9
2018-Sep-17 20:13 325 1 gusting 3 13.9
2018-Sep-17 19:58 325 1 gusting 3 14.4
2018-Sep-17 19:43 325 2 gusting 4 15.0
2018-Sep-17 19:28 325 1 gusting 3 15.6
2018-Sep-17 19:13 325 1 gusting 3 16.1
2018-Sep-17 18:44 325 1 gusting 3 16.7
2018-Sep-17 18:29 323 2 gusting 3 17.2
2018-Sep-17 18:15 326 2 gusting 4 17.8
2018-Sep-17 17:58 316 1 gusting 3 18.3
2018-Sep-17 17:43 318 2 gusting 4 18.9
2018-Sep-17 17:30 322 1 gusting 5 20.0
2018-Sep-17 17:13 319 2 gusting 4 20.6
2018-Sep-17 16:58 331 1 gusting 3 21.7
2018-Sep-17 16:43 331 0 gusting 2 22.8
2018-Sep-17 16:28 331 1 gusting 2 23.9
2018-Sep-17 16:13 331 25.0
2018-Sep-17 15:58 319 25.6
2018-Sep-17 15:43 319 0 gusting 2 25.6
2018-Sep-17 15:28 325 26.1
2018-Sep-17 15:13 321 1 gusting 5 26.7
2018-Sep-17 14:58 011 27.2
2018-Sep-17 14:43 043 27.2
2018-Sep-17 14:28 105 0 gusting 2 27.2
2018-Sep-17 14:13 187 27.2
2018-Sep-17 13:58 305 26.7
2018-Sep-17 13:43 213 0 gusting 3 26.7
2018-Sep-17 13:28 355 0 gusting 5 26.7
2018-Sep-17 13:14 063 1 gusting 4 27.2
2018-Sep-17 12:58 316 2 gusting 7 27.8
2018-Sep-17 12:43 069 27.8
2018-Sep-17 12:28 194 3 gusting 11 27.2
2018-Sep-17 12:13 346 2 gusting 6 26.7
2018-Sep-17 11:58 239 0 gusting 7 27.2
2018-Sep-17 11:43 175 2 gusting 5 26.7
2018-Sep-17 11:28 202 3 gusting 7 26.7
2018-Sep-17 11:13 325 26.1